Change the Weather History Date:

Wednesday, October 12, 2011

  Actual Average Record
Temperature  
Mean Temperature 66 °F -  
Max Temperature 80 °F 69 °F 86 °F (2001)
Min Temperature 53 °F 51 °F 50 °F (1996)
Cooling Degree Days 2    
Growing Degree Days 16 (Base 50)    
Moisture  
Dew Point 63 °F    
Average Humidity 85    
Maximum Humidity 100    
Minimum Humidity 51    
Precipitation  
Precipitation 0.00 in 0.07 in - ()
Sea Level Pressure  
Sea Level Pressure 30.15 in    
Wind  
Wind Speed 2 mph ()    
Max Wind Speed 14 mph    
Max Gust Speed -    
Visibility 6.4 miles    
Events Fog    
Averages and records for this station are not official NWS values.
T = Trace of Precipitation, MM = Missing Value Source: Averaged Metar Reports

Daily Weather History Graph

Daily Weather History Graph

Search for Another Location

Airport or City:

Trip Planner

Search our weather history database for the weather conditions in past years. The results will help you decide how hot, cold, wet, or windy it might be!

Date:

Astronomy

Oct. 12, 2011 Rise Set
Actual Time 7:55 AM CEST 7:15 PM CEST
Civil Twilight 7:28 AM CEST 7:42 PM CEST
Nautical Twilight 6:57 AM CEST 8:13 PM CEST
Astronomical Twilight 6:26 AM CEST 8:44 PM CEST
Moon 7:09 PM CEST (10/12) 8:15 AM CEST (10/12)
Length of Visible Light 12h 13m
Length of Day
11h 19m
Full, 100% of the Moon is Illuminated
Oct 12
Full
Oct 20
Last Quarter
Oct 26
New
Nov 2
First Quarter
Nov 10
Full

Hourly Weather History & Observations

Time (CEST) Temp. Dew Point Humidity Pressure Visibility Wind Dir Wind Speed Gust Speed Precip Events Conditions
12:00 AM 64.4 °F 60.8 °F 88% 30.18 in - Calm Calm - N/A   Clear
12:30 AM 62.6 °F 60.8 °F 94% 30.18 in - Calm Calm - N/A   Clear
1:00 AM 60.8 °F 59.0 °F 94% 30.18 in - NE 2.3 mph - N/A   Clear
2:00 AM 60 °F 59 °F 94% 30.19 in 5 mi 1.2 mph - - Fog Patches of Fog
2:00 AM 60.8 °F 59.0 °F 94% 30.18 in 5.0 mi Variable 1.2 mph - N/A Fog Fog
2:30 AM 59.0 °F 59.0 °F 100% 30.18 in 5.0 mi NNE 1.2 mph - N/A Fog Fog
3:00 AM 59.0 °F 57.2 °F 94% 30.15 in 5.0 mi Calm Calm - N/A Fog Fog
3:30 AM 59.0 °F 59.0 °F 100% 30.15 in 5.0 mi Calm Calm - N/A   Partly Cloudy
4:00 AM 59.0 °F 57.2 °F 94% 30.15 in 5.6 mi Calm Calm - N/A   Partly Cloudy
4:30 AM 55.4 °F 55.4 °F 100% 30.15 in 6.2 mi Calm Calm - N/A   Partly Cloudy
5:00 AM 57.2 °F 55.4 °F 94% 30.12 in 6.2 mi Calm Calm - N/A   Partly Cloudy
5:30 AM 57.2 °F 55.4 °F 94% 30.12 in 6.2 mi North 1.2 mph - N/A   Partly Cloudy
6:00 AM 55.4 °F 55.4 °F 100% 30.15 in 6.2 mi Calm Calm - N/A   Partly Cloudy
6:30 AM 55.4 °F 55.4 °F 100% 30.15 in 6.2 mi Calm Calm - N/A   Partly Cloudy
7:00 AM 55.4 °F 53.6 °F 94% 30.15 in 6.2 mi Calm Calm - N/A   Partly Cloudy
7:30 AM 55.4 °F 53.6 °F 94% 30.15 in 6.2 mi Calm Calm - N/A Fog Shallow Fog
8:00 AM 54 °F 54 °F 98% 30.16 in 12 mi Calm Calm - -   Scattered Clouds
8:00 AM 53.6 °F 53.6 °F 100% 30.15 in 6.2 mi Calm Calm - N/A Fog Shallow Fog
8:30 AM 55.4 °F 53.6 °F 94% 30.15 in 6.2 mi Calm Calm - N/A   Partly Cloudy
9:00 AM 60.8 °F 59.0 °F 94% 30.15 in 6.2 mi Calm Calm - N/A   Partly Cloudy
9:30 AM 60.8 °F 59.0 °F 94% 30.18 in 6.2 mi Calm Calm - N/A   Partly Cloudy
10:00 AM 64.4 °F 62.6 °F 94% 30.18 in 6.2 mi Calm Calm - N/A   Partly Cloudy
10:30 AM 71.6 °F 62.6 °F 73% 30.18 in 6.2 mi Calm Calm - N/A   Partly Cloudy
11:00 AM 75.2 °F 60.8 °F 61% 30.18 in - Calm Calm - N/A   Clear
11:30 AM 78.8 °F 59.0 °F 51% 30.18 in - Calm Calm - N/A   Clear
12:00 PM 78.8 °F 60.8 °F 54% 30.18 in - Variable 2.3 mph - N/A   Clear
12:30 PM 78.8 °F 60.8 °F 54% 30.18 in - SSW 5.8 mph - N/A   Clear
1:00 PM 78.8 °F 68.0 °F 69% 30.18 in - SW 8.1 mph - N/A   Clear
1:30 PM 78.8 °F 68.0 °F 69% 30.18 in - SSW 8.1 mph - N/A   Clear
2:00 PM 78 °F 68 °F 63% 30.17 in 19 mi SSW 10.4 mph - -   Clear
2:00 PM 78.8 °F 68.0 °F 69% 30.15 in - SSW 9.2 mph - N/A   Clear
2:30 PM 78.8 °F 68.0 °F 69% 30.15 in - SSW 11.5 mph - N/A   Clear
3:00 PM 78.8 °F 68.0 °F 69% 30.15 in - SSW 12.7 mph - N/A   Clear
3:30 PM 78.8 °F 66.2 °F 65% 30.15 in - SSW 13.8 mph - N/A   Clear
4:00 PM 78.8 °F 69.8 °F 74% 30.12 in 6.2 mi SW 13.8 mph - N/A   Partly Cloudy
4:30 PM 78.8 °F 69.8 °F 74% 30.12 in 6.2 mi SSW 13.8 mph - N/A   Partly Cloudy
5:00 PM 78.8 °F 69.8 °F 74% 30.12 in 6.2 mi SSW 10.4 mph - N/A   Partly Cloudy
5:30 PM 78.8 °F 69.8 °F 74% 30.12 in 6.2 mi SSW 11.5 mph - N/A   Partly Cloudy
6:00 PM 77.0 °F 69.8 °F 78% 30.12 in 6.2 mi SSW 10.4 mph - N/A   Partly Cloudy
6:30 PM 77.0 °F 69.8 °F 78% 30.12 in 6.2 mi SSW 8.1 mph - N/A   Partly Cloudy
7:00 PM 75.2 °F 69.8 °F 83% 30.12 in 6.2 mi SSW 6.9 mph - N/A   Partly Cloudy
7:30 PM 75.2 °F 69.8 °F 83% 30.12 in 6.2 mi South 3.5 mph - N/A   Partly Cloudy
8:00 PM 75 °F 70 °F 81% 30.13 in 19 mi SW 6.9 mph - -  
8:00 PM 75.2 °F 69.8 °F 83% 30.12 in - South 3.5 mph - N/A   Clear
8:30 PM 75.2 °F 71.6 °F 89% 30.12 in 6.2 mi SSW 2.3 mph - N/A   Partly Cloudy
9:00 PM 75.2 °F 71.6 °F 89% 30.12 in 6.2 mi South 3.5 mph - N/A   Partly Cloudy
9:30 PM 71.6 °F 68.0 °F 88% 30.12 in 6.2 mi South 2.3 mph - N/A   Partly Cloudy
10:00 PM 68.0 °F 66.2 °F 94% 30.12 in 6.2 mi Calm Calm - N/A   Partly Cloudy
10:30 PM 66.2 °F 64.4 °F 94% 30.12 in 5.6 mi Calm Calm - N/A   Partly Cloudy
11:00 PM 64.4 °F 64.4 °F 100% 30.12 in 4.3 mi Calm Calm - N/A   Partly Cloudy
11:17 PM 64.4 °F 64.4 °F 100% 30.12 in 4.3 mi Calm Calm - N/A   Mostly Cloudy
11:30 PM 64.4 °F 62.6 °F 94% 30.12 in 4.3 mi Calm Calm - N/A   Mostly Cloudy
11:41 PM 64.4 °F 64.4 °F 100% 30.12 in 0.6 mi Calm Calm - N/A Fog Patches of Fog
11:50 PM 64.4 °F 64.4 °F 100% 30.12 in 0.3 mi NE 1.2 mph - N/A Fog Patches of Fog